[[{"header":{"parameterUnit":"m.s-1","parameterCategory":1,"la1":30.2991,"la2":30.254,"lo1":-89.0895,"lo2":-89.0444,"dy":0.0017,"dx":0.0017,"nx":28,"ny":28,"refTime":"2025-06-17T09:00:00:Z","depth":0,"parameterNumber":2,"parameterNumberName":"U-component_of_WINDS"},"data":[0,0,0,0,0,0,0,0,0,0,0,0,0,0,0,0,0,0,0,0,0,0,0,0,0,0,0,0,0,0,0,0,0,0,0,0,0,0,0,0,0,0,0,0,0,0,0,0,0,0,0,0,0,0,0,0,0,0,3.2466,3.2467,0,3.2541,3.2541,3.2542,3.2517,3.2515,3.2514,3.2512,3.2583,3.2586,3.259,0,0,0,0,0,0,0,0,0,0,0,0,0,3.2295,3.2298,3.2466,3.2467,3.2468,3.254,3.2541,3.2542,3.2517,3.2515,3.2513,3.2511,3.2582,3.2586,3.259,0,0,0,0,0,0,0,0,0,0,0,0,0,3.2369,3.2299,3.2466,3.2464,3.2465,3.254,3.2541,3.2543,3.2518,3.2515,3.2513,3.251,3.2581,3.2586,3.2591,3.2671,0,0,3.2606,3.2608,0,0,0,0,0,0,0,0,3.2365,3.2376,3.2463,3.2464,3.2465,3.2517,3.2507,3.2585,3.2518,3.2497,3.2512,3.2509,3.2563,3.2569,3.2588,3.2674,3.2677,3.2607,3.261,3.2612,3.2613,0,0,0,0,0,0,0,3.236,3.2372,3.2495,3.2465,3.2466,3.2457,3.2465,3.2522,3.2543,3.2499,3.2497,3.2507,3.2563,3.2583,3.259,3.2678,3.2607,3.2611,3.2614,3.2616,3.2829,3.2831,0,0,0,0,0,0,3.2355,3.2368,3.2493,3.2498,3.2408,3.2462,3.2471,3.2503,3.2542,3.2546,3.2509,3.2505,3.2576,3.2584,3.2592,3.2685,3.2612,3.2617,3.262,3.2826,3.2829,3.2832,0,0,0,0,0,0,3.2352,3.2367,3.249,3.2432,3.2448,3.2468,3.2504,3.2506,3.2526,3.2549,3.2552,3.2527,3.2574,3.2585,3.2651,3.2687,3.2619,3.2624,3.2823,3.2827,3.2831,3.2874,0,0,0,0,0,0,3.2347,3.2366,3.2398,3.2433,3.2451,3.2549,3.2506,3.2509,3.2536,3.2532,3.2567,3.257,3.2573,3.2643,3.2656,3.2693,3.2628,3.282,3.2825,3.2829,3.2869,3.2879,3.2887,0,0,0,0,0,3.2341,3.2407,3.24,3.2415,3.2492,3.2552,3.2561,3.2565,3.2539,3.257,3.2584,3.2569,3.2682,3.265,3.2664,3.2704,3.2817,3.2823,3.2829,3.2865,3.2877,3.2887,0,0,0,0,0,0,3.2374,3.2411,3.2404,3.2484,3.2515,3.2547,3.2587,3.2578,3.2616,3.261,3.2611,3.2619,3.2686,3.2702,3.2666,3.2781,3.2745,3.2754,3.2768,3.2779,3.2788,3.2781,3.2632,0,0,0,0,0,3.2391,3.2438,3.2468,3.2535,3.2551,3.2567,3.2593,3.2593,3.2624,3.2637,3.2656,3.2686,3.2727,3.2755,3.2795,3.2872,3.2877,3.2906,3.2915,3.2922,3.2928,3.2967,3.2978,3.2851,3.2851,3.2851,0,0,3.2425,3.2451,3.2481,3.2542,3.2566,3.2612,3.2578,3.2629,3.2662,3.2644,3.2707,3.2722,3.2755,3.2826,3.2858,3.2841,3.2965,3.2929,3.2935,3.2937,3.2974,3.2986,3.2996,3.2855,3.2854,3.2854,0,0,3.2511,3.2538,3.2595,3.262,3.2657,3.2666,3.268,3.2714,3.2723,3.2787,3.2773,3.2812,3.2885,3.2908,3.2929,3.3022,3.3007,3.3035,3.308,3.3117,3.3127,3.3136,3.3165,3.3176,3.3042,3.3042,3.3042,0,3.2548,3.262,3.2625,3.2677,3.2702,3.2689,3.2745,3.2769,3.2816,3.2833,3.2814,3.2903,3.2925,3.2999,3.3021,3.304,3.3053,3.3029,3.3126,3.3134,3.3143,3.3171,3.3182,3.3045,3.3045,3.3044,3.3044,0,3.2662,3.2711,3.2753,3.28,3.283,3.2884,3.2895,3.2925,3.2922,3.2933,3.2996,3.3021,3.3064,3.3083,3.308,3.3156,3.3143,3.3125,3.3089,3.3158,3.3184,3.3195,3.3049,3.3048,3.3047,3.3046,0,0,3.2769,3.2818,3.2833,3.2853,3.2892,3.2929,3.2981,3.3025,3.3049,3.3082,3.3123,3.3184,3.3167,3.3191,3.3191,3.3224,3.3291,3.3201,3.3202,3.3214,3.3372,3.3383,3.3395,3.3284,3.3286,3.3287,3.3367,0,3.2855,3.2948,3.2954,3.3037,3.308,3.3068,3.3112,3.314,3.3151,3.3188,3.32,3.3242,3.3218,3.3231,3.3264,3.3276,3.3322,3.3271,3.3318,3.332,3.3307,3.341,3.3422,3.3497,3.3378,3.338,3.3381,0,3.2968,3.3005,3.3093,3.3124,3.3142,3.3182,3.3221,3.3258,3.3287,3.3293,3.3319,3.3314,3.3364,3.3328,3.3395,3.336,3.338,3.3389,3.3391,3.3393,3.3352,3.3411,3.3521,3.3531,3.3398,3.3397,3.3396,0,3.3033,3.3105,3.3166,3.3184,3.3222,3.325,3.3267,3.3295,3.332,3.3353,3.3369,3.3407,3.3428,3.3456,3.3461,3.3435,3.3526,3.3492,3.3529,3.3529,3.3547,3.3545,3.3658,3.3565,3.3565,3.3565,3.3565,0,3.3127,3.318,3.3195,3.3232,3.329,3.3295,3.3351,3.3366,3.339,3.3428,3.342,3.3455,3.346,3.3496,3.3499,3.3552,3.3562,3.3565,3.3565,3.3564,3.3563,3.3575,3.3568,3.3568,3.3567,3.3567,3.3566,0,3.3208,3.3221,3.3286,3.3317,3.3326,3.3367,3.3392,3.3426,3.3436,3.3483,3.3495,3.351,3.3551,3.3559,3.3608,3.361,3.3671,3.3668,3.3662,3.366,3.3696,3.3691,3.3817,3.3832,3.3733,3.3734,3.3735,0,3.3265,3.3306,3.3341,3.3366,3.3385,3.3426,3.3451,3.3457,3.3483,3.3519,3.3548,3.3589,3.3621,3.3686,3.37,3.3737,3.3731,3.3773,3.3737,3.3733,3.3728,3.3724,3.3726,3.3779,3.378,3.3781,3.3782,0,3.3364,3.3368,3.3406,3.3446,3.3476,3.3508,3.3537,3.3558,3.3567,3.3596,3.3639,3.3664,3.3713,3.3752,3.3788,3.3803,3.3793,3.3794,3.3804,3.3801,3.3795,3.3795,3.3677,3.379,3.3789,3.3789,3.3788,3.3788,3.3433,3.3467,3.3497,3.3538,3.3561,3.3588,3.3621,3.3635,3.3671,3.3713,3.3714,3.3759,3.3785,3.3832,3.3849,3.3883,3.3869,3.3885,3.3888,3.3891,3.3892,3.3792,3.389,3.389,3.389,3.3889,3.3889,0,3.3528,3.3546,3.3585,3.3626,3.3658,3.3649,3.368,3.3706,3.3747,3.3773,3.3805,3.3852,3.389,3.3907,3.3943,3.3966,3.3962,3.3975,3.3972,3.3975,3.3904,3.3891,3.3978,3.3978,3.3978,3.3978,3.3978,3.3978,3.3581,3.3637,3.3644,3.3711,3.3728,3.3774,3.3792,3.3816,3.3836,3.389,3.3921,3.3933,3.3954,3.3992,3.4024,3.4028,3.404,3.4054,3.4056,3.3989,3.398,3.3971,3.3958,3.4058,3.4058,3.4123,3.4123,3.4124]},{"header":{"parameterUnit":"m.s-1","parameterCategory":1,"la1":30.2991,"la2":30.254,"lo1":-89.0895,"lo2":-89.0444,"dy":0.0017,"dx":0.0017,"nx":28,"ny":28,"refTime":"2025-06-17T09:00:00:Z","depth":0,"parameterNumber":3,"parameterNumberName":"V-component_of_WINDS"},"data":[0,0,0,0,0,0,0,0,0,0,0,0,0,0,0,0,0,0,0,0,0,0,0,0,0,0,0,0,0,0,0,0,0,0,0,0,0,0,0,0,0,0,0,0,0,0,0,0,0,0,0,0,0,0,0,0,0,0,4.8123,4.8125,0,4.826,4.8262,4.8263,4.8234,4.8232,4.8229,4.8227,4.8359,4.8365,4.8371,0,0,0,0,0,0,0,0,0,0,0,0,0,4.7826,4.7832,4.8123,4.8125,4.8127,4.826,4.8262,4.8264,4.8235,4.8232,4.8229,4.8226,4.8357,4.8364,4.8371,0,0,0,0,0,0,0,0,0,0,0,0,0,4.7958,4.7834,4.8123,4.8128,4.813,4.826,4.8262,4.8264,4.8235,4.8232,4.8228,4.8224,4.8355,4.8364,4.8372,4.8502,0,0,4.8399,4.8403,0,0,0,0,0,0,0,0,4.7951,4.7969,4.8126,4.8128,4.8131,4.8227,4.8206,4.8344,4.8236,4.8195,4.8227,4.8222,4.8318,4.8329,4.8363,4.8508,4.8514,4.84,4.8405,4.8409,4.8412,0,0,0,0,0,0,0,4.7942,4.7963,4.8177,4.8128,4.8131,4.8121,4.8135,4.8232,4.8276,4.8199,4.8197,4.8214,4.8318,4.8355,4.8366,4.8516,4.84,4.8408,4.8413,4.8416,4.877,4.8774,0,0,0,0,0,0,4.7932,4.7956,4.8173,4.8181,4.803,4.8129,4.8145,4.8199,4.8275,4.8283,4.8217,4.8212,4.8341,4.8356,4.837,4.8525,4.8409,4.8417,4.8422,4.8766,4.8771,4.8776,0,0,0,0,0,0,4.7926,4.7952,4.8167,4.8068,4.8095,4.8138,4.8199,4.8204,4.8241,4.8289,4.8295,4.8247,4.8339,4.8358,4.8469,4.8529,4.8421,4.8429,4.8761,4.8768,4.8773,4.8837,0,0,0,0,0,0,4.7917,4.7949,4.8002,4.807,4.81,4.8267,4.8203,4.8209,4.8257,4.8252,4.8318,4.8326,4.8337,4.8456,4.8478,4.8539,4.8436,4.8756,4.8764,4.8771,4.883,4.8845,4.8857,0,0,0,0,0,4.7907,4.8013,4.8005,4.8031,4.8167,4.8271,4.8288,4.8302,4.8262,4.8313,4.8343,4.8324,4.8519,4.8468,4.8492,4.8557,4.8752,4.8762,4.8771,4.8823,4.8842,4.8857,0,0,0,0,0,0,4.7949,4.8022,4.8014,4.8146,4.8203,4.8266,4.8331,4.8321,4.8388,4.838,4.8391,4.8406,4.8519,4.8549,4.8491,4.8685,4.863,4.8644,4.8661,4.8679,4.8693,4.8682,4.8443,0,0,0,0,0,4.7975,4.8056,4.8114,4.8225,4.8254,4.8288,4.8333,4.8339,4.8397,4.842,4.8458,4.8513,4.8586,4.8634,4.8705,4.8834,4.8846,4.889,4.8904,4.8915,4.8927,4.8994,4.9013,4.8806,4.8806,4.8806,0,0,4.8027,4.8077,4.8127,4.8235,4.8279,4.8359,4.8308,4.8396,4.8454,4.8432,4.854,4.857,4.8631,4.8751,4.8805,4.8779,4.8987,4.8927,4.8935,4.8941,4.9005,4.9025,4.9042,4.8812,4.8811,4.881,0,0,4.8163,4.821,4.8307,4.8352,4.8421,4.8442,4.8465,4.853,4.8549,4.8658,4.8642,4.871,4.8837,4.8881,4.8919,4.9069,4.9052,4.9091,4.9163,4.9228,4.9244,4.9259,4.931,4.9328,4.9103,4.9103,4.9103,0,4.8218,4.8342,4.8357,4.8446,4.8492,4.8478,4.8573,4.8615,4.8702,4.8733,4.8703,4.886,4.8901,4.9029,4.9065,4.9098,4.9122,4.9083,4.9241,4.9256,4.927,4.9318,4.9337,4.9107,4.9107,4.9106,4.9106,0,4.8405,4.8491,4.856,4.8646,4.87,4.8792,4.8817,4.8869,4.8869,4.8892,4.9,4.9048,4.9127,4.9157,4.9158,4.9285,4.9266,4.9239,4.9183,4.9293,4.9339,4.9358,4.9113,4.9112,4.911,4.9109,0,0,4.8573,4.8666,4.8691,4.8728,4.8802,4.8866,4.8955,4.9034,4.9077,4.9137,4.9209,4.9316,4.929,4.9334,4.9339,4.9396,4.9508,4.9361,4.9362,4.9385,4.9648,4.9667,4.9689,4.9497,4.9501,4.9504,4.9642,0,4.8715,4.8876,4.889,4.9032,4.9109,4.9095,4.9172,4.9223,4.9247,4.9312,4.9337,4.9412,4.9373,4.9399,4.9455,4.9483,4.956,4.9473,4.9562,4.9565,4.9546,4.9713,4.9735,4.9863,4.966,4.9663,4.9665,0,4.8902,4.8968,4.9119,4.918,4.9212,4.9282,4.9353,4.9418,4.9474,4.9486,4.9534,4.9531,4.9618,4.956,4.9678,4.9618,4.9655,4.9673,4.9679,4.9687,4.9621,4.9724,4.9904,4.9923,4.9694,4.9692,4.9689,0,4.9006,4.9134,4.924,4.9273,4.9346,4.9395,4.9427,4.948,4.9525,4.9586,4.9615,4.9685,4.9723,4.9776,4.9789,4.9746,4.9907,4.985,4.9917,4.9916,4.9951,4.9948,5.0138,4.9977,4.9976,4.9976,4.9976,0,4.9162,4.9254,4.9288,4.9353,4.9455,4.9468,4.9567,4.9596,4.9642,4.971,4.9701,4.9764,4.9779,4.9843,4.9854,4.9949,4.9966,4.9976,4.9978,4.9977,4.9975,5.0,4.9991,4.9981,4.998,4.9979,4.9978,0,4.9297,4.9323,4.9438,4.9498,4.9514,4.9586,4.9636,4.9696,4.9718,4.9803,4.9824,4.9856,4.9932,4.9951,5.004,5.0047,5.0158,5.0152,5.0141,5.014,5.0204,5.0197,5.0416,5.0444,5.0266,5.0267,5.0269,0,4.9394,4.9465,4.9532,4.9578,4.9613,4.9687,4.9734,4.9748,4.9796,4.9864,4.9915,4.999,5.0051,5.0171,5.0201,5.0268,5.0262,5.0334,5.0272,5.0268,5.0261,5.0256,5.0262,5.0345,5.0347,5.0349,5.035,0,4.9563,4.9572,4.9641,4.9714,4.9771,4.9828,4.9883,4.992,4.9942,4.9995,5.0074,5.0121,5.0212,5.0285,5.0353,5.0381,5.0368,5.0369,5.0388,5.0387,5.0377,5.0381,5.0171,5.0364,5.0363,5.0362,5.0361,5.036,4.968,4.9742,4.9799,4.9875,4.9918,4.9969,5.0028,5.0057,5.0124,5.0201,5.0204,5.0288,5.0338,5.0428,5.0461,5.0524,5.0502,5.053,5.0536,5.0543,5.0547,5.0368,5.0537,5.0536,5.0536,5.0536,5.0535,0,4.9847,4.9883,4.9953,5.0031,5.009,5.0075,5.0134,5.0183,5.0258,5.0307,5.0367,5.0455,5.0525,5.056,5.0628,5.0672,5.0667,5.0689,5.0685,5.0692,5.0564,5.0541,5.0692,5.0692,5.0692,5.0691,5.0691,5.0691,4.9941,5.0043,5.0059,5.018,5.0214,5.0299,5.0333,5.0379,5.0418,5.0517,5.0577,5.0599,5.0642,5.0713,5.0775,5.0783,5.0807,5.0832,5.0837,5.0717,5.0701,5.0686,5.0664,5.0838,5.0838,5.0958,5.096,5.096]}]]